Weather History for VIDP - November, 2012

Change the Weather History Date:

Friday, November 16, 2012

  Actual Average Record
Temperature  
Mean Temperature 66 °F -  
Max Temperature 78 °F 74 °F 86 °F (2000)
Min Temperature 55 °F 51 °F 50 °F (2014)
Cooling Degree Days 2    
Growing Degree Days 16 (Base 50)    
Moisture  
Dew Point 53 °F    
Average Humidity 64    
Maximum Humidity 88    
Minimum Humidity 36    
Precipitation  
Precipitation 0.00 in - - ()
Sea Level Pressure  
Sea Level Pressure 30.02 in    
Wind  
Wind Speed 1 mph ()    
Max Wind Speed 5 mph    
Max Gust Speed -    
Visibility 0.5 miles    
Events Fog    
Averages and records for this station are not official NWS values.
T = Trace of Precipitation, MM = Missing Value Source: Averaged Metar Reports

Daily Weather History Graph

Daily Weather History Graph

Search for Another Location

Airport or City:

Trip Planner

Search our weather history database for the weather conditions in past years. The results will help you decide how hot, cold, wet, or windy it might be!

Date:

Astronomy

Nov. 16, 2012 Rise Set
Actual Time 6:44 AM IST 5:27 PM IST
Civil Twilight 6:19 AM IST 5:52 PM IST
Nautical Twilight 5:51 AM IST 6:20 PM IST
Astronomical Twilight 5:23 AM IST 6:49 PM IST
Moon 9:08 AM IST (11/16) 7:59 PM IST (11/16)
Length of Visible Light 11h 32m
Length of Day
10h 42m
Waxing Crescent, 8% of the Moon is Illuminated
Nov 16
Waxing Crescent
Nov 20
First Quarter
Nov 28
Full
Dec 6
Last Quarter
Dec 13
New

Hourly Weather History & Observations

Time (IST) Temp. Dew Point Humidity Pressure Visibility Wind Dir Wind Speed Gust Speed Precip Events Conditions
12:00 AM 64.4 °F 55.4 °F 73% 30.01 in 0.4 mi Calm Calm - N/A   Smoke
12:30 AM 62.6 °F 53.6 °F 72% 30.01 in 0.4 mi Calm Calm - N/A   Smoke
1:00 AM 62.6 °F 53.6 °F 72% 29.98 in 0.4 mi Calm Calm - N/A   Smoke
1:30 AM 62.6 °F 55.4 °F 77% 29.98 in 0.3 mi Calm Calm - N/A Fog Shallow Fog
2:00 AM 60.8 °F 55.4 °F 82% 29.98 in 0.3 mi Calm Calm - N/A Fog Shallow Fog
2:30 AM 60.8 °F 53.6 °F 77% 29.98 in 0.3 mi Calm Calm - N/A Fog Shallow Fog
3:00 AM 60.8 °F 53.6 °F 77% 29.98 in 0.3 mi Calm Calm - N/A Fog Shallow Fog
3:30 AM 59.0 °F 53.6 °F 82% 29.98 in 0.3 mi Calm Calm - N/A Fog Fog
4:00 AM 57.2 °F 51.8 °F 82% 29.98 in 0.2 mi Calm Calm - N/A Fog Fog
4:30 AM 57.2 °F 51.8 °F 82% 29.98 in 0.2 mi Calm Calm - N/A Fog Fog
5:00 AM 57.2 °F 51.8 °F 82% 29.98 in 0.2 mi Calm Calm - N/A Fog Fog
5:30 AM 57.2 °F 51.8 °F 82% 29.98 in 0.2 mi Calm Calm - N/A Fog Fog
6:00 AM 55.4 °F 51.8 °F 88% 29.98 in 0.2 mi Calm Calm - N/A Fog Fog
6:30 AM 55.4 °F 51.8 °F 88% 30.01 in 0.3 mi Calm Calm - N/A Fog Fog
7:00 AM 55.4 °F 50.0 °F 82% 30.01 in 0.3 mi Calm Calm - N/A Fog Fog
7:30 AM 55.4 °F 50.0 °F 82% 30.04 in 0.3 mi Calm Calm - N/A Fog Fog
8:00 AM 59.0 °F 51.8 °F 77% 30.06 in 0.4 mi Calm Calm - N/A Fog Shallow Fog
8:30 AM 59.0 °F 51.8 °F 77% 30.06 in 0.4 mi Calm Calm - N/A Fog Shallow Fog
9:00 AM 60.8 °F 53.6 °F 77% 30.06 in 0.4 mi Calm Calm - N/A Fog Shallow Fog
10:00 AM 66.2 °F 53.6 °F 64% 30.09 in 0.6 mi WSW 3.5 mph - N/A   Smoke
10:30 AM 68.0 °F 53.6 °F 60% 30.09 in 0.6 mi WSW 3.5 mph - N/A   Smoke
11:00 AM 71.6 °F 53.6 °F 53% 30.09 in 0.6 mi WSW 2.3 mph - N/A   Smoke
11:30 AM 73.4 °F 53.6 °F 50% 30.09 in 0.7 mi Calm Calm - N/A   Smoke
12:00 PM 73.4 °F 53.6 °F 50% 30.09 in 0.7 mi Variable 2.3 mph - N/A   Smoke
12:30 PM 77.0 °F 53.6 °F 44% 30.06 in 0.7 mi West 3.5 mph - N/A   Smoke
1:00 PM 77.0 °F 51.8 °F 41% 30.06 in 0.9 mi WNW 4.6 mph - N/A   Smoke
1:30 PM 77.0 °F 51.8 °F 41% 30.04 in 0.9 mi NW 4.6 mph - N/A   Smoke
2:00 PM 77.0 °F 51.8 °F 41% 30.04 in 0.9 mi ENE 3.5 mph - N/A   Smoke
2:30 PM 78.8 °F 50.0 °F 36% 30.01 in 0.7 mi NW 4.6 mph - N/A   Smoke
3:00 PM 78.8 °F 50.0 °F 36% 30.01 in 0.7 mi WNW 4.6 mph - N/A   Smoke
3:30 PM 78.8 °F 50.0 °F 36% 29.98 in 0.7 mi West 4.6 mph - N/A   Smoke
4:00 PM 78.8 °F 50.0 °F 36% 29.98 in 0.7 mi WNW 3.5 mph - N/A   Smoke
4:30 PM 77.0 °F 50.0 °F 39% 29.98 in 0.8 mi NW 4.6 mph - N/A   Smoke
5:00 PM 77.0 °F 50.0 °F 39% 29.98 in 0.8 mi Calm Calm - N/A   Smoke
5:30 PM 75.2 °F 51.8 °F 44% 29.98 in 0.8 mi Calm Calm - N/A   Smoke
6:00 PM 73.4 °F 51.8 °F 47% 30.01 in 0.8 mi Calm Calm - N/A   Smoke
6:30 PM 71.6 °F 51.8 °F 50% 30.01 in 0.7 mi Calm Calm - N/A   Smoke
7:00 PM 68.0 °F 53.6 °F 60% 30.01 in 0.6 mi Calm Calm - N/A   Smoke
8:00 PM 66.2 °F 55.4 °F 68% 30.04 in 0.4 mi Calm Calm - N/A   Smoke
8:30 PM 66.2 °F 55.4 °F 68% 30.04 in 0.4 mi Calm Calm - N/A   Smoke
9:00 PM 66.2 °F 55.4 °F 68% 30.04 in 0.4 mi Calm Calm - N/A   Smoke
9:30 PM 66.2 °F 55.4 °F 68% 30.04 in 0.4 mi Calm Calm - N/A   Smoke
10:00 PM 64.4 °F 55.4 °F 73% 30.04 in - Calm Calm - N/A   Smoke
10:30 PM 64.4 °F 55.4 °F 73% 30.04 in - Calm Calm - N/A   Smoke
11:00 PM 62.6 °F 55.4 °F 77% 30.04 in 0.4 mi Calm Calm - N/A Fog Shallow Fog
11:30 PM 62.6 °F 55.4 °F 77% 30.04 in 0.4 mi Calm Calm - N/A Fog Shallow Fog